This is the latest recevied weather packets stored in our database for station/object W6ORV. If no packets are shown the sender has not sent any weather packets the latest 10 day(s).
| Time | Temp. | Humidity | Pressure | Rain* | Wind** | Luminosity | Snow |
|---|---|---|---|---|---|---|---|
| 1777742237 | 12.22° C | 98% | 4299.1 hPa | 0 mm | - | 424 W/m² | - |
| 1777741631 | 11.67° C | 99% | 4299.5 hPa | 0 mm | - | 274 W/m² | - |
| 1777741023 | 11.67° C | 99% | 4299.3 hPa | 0 mm | - | 224 W/m² | - |
| 1777739810 | 10.56° C | 99% | 4299.2 hPa | 0 mm | - | 209 W/m² | - |
| 1777739507 | 10.56° C | 99% | 4299.1 hPa | 0 mm | - | 159 W/m² | - |
| 1777739204 | 10.56° C | 99% | 4299.3 hPa | 0 mm | - | 191 W/m² | - |
| 1777738901 | 10.56° C | 99% | 4299.2 hPa | 0 mm | - | 185 W/m² | - |
| 1777738598 | 10.56° C | 99% | 4299.5 hPa | 0 mm | - | 164 W/m² | - |
| 1777738295 | 10° C | 99% | 4299.4 hPa | 0 mm | - | 155 W/m² | - |
| 1777737993 | 10° C | 99% | 4299.3 hPa | 0 mm | - | 125 W/m² | - |
| 1777736154 | 10° C | 99% | 4299.1 hPa | 0 mm | - | 109 W/m² | - |
| 1777735851 | 10° C | 99% | 4299.3 hPa | 0 mm | - | 95 W/m² | - |
| 1777735548 | 10° C | 99% | 4299.2 hPa | 0 mm | - | 91 W/m² | - |
| 1777735245 | 10° C | 99% | 4299.2 hPa | 0 mm | - | 116 W/m² | - |
| 1777734942 | 10° C | 99% | 4299 hPa | 0 mm | - | 117 W/m² | - |
| 1777734640 | 9.44° C | 99% | 4299 hPa | 0 mm | - | 101 W/m² | - |
| 1777734337 | 9.44° C | 99% | 4299.1 hPa | 0 mm | - | 86 W/m² | - |
| 1777734033 | 10° C | 99% | 4299.2 hPa | 0 mm | - | 64 W/m² | - |
| 1777733729 | 10° C | 99% | 4299.3 hPa | 0 mm | - | 60 W/m² | - |
| 1777733426 | 10° C | 99% | 4298.9 hPa | 0 mm | - | 58 W/m² | - |
| 1777733123 | 10° C | 99% | 4299 hPa | 0 mm | - | 67 W/m² | - |
| 1777732820 | 10° C | 99% | 4299 hPa | 0 mm | - | 60 W/m² | - |
| 1777732516 | 10° C | 99% | 4298.9 hPa | 0 mm | - | 59 W/m² | - |
| 1777732214 | 10° C | 99% | 4298.6 hPa | 0 mm | - | 59 W/m² | - |
| 1777731911 | 10° C | 99% | 4298.8 hPa | 0 mm | - | 53 W/m² | - |
* Rain latest hour (hover to see other rain measurements)
** Current wind speed in m/s (hover to see current wind gust speed)